Regional Weather Roundup
Issued by NWS Green Bay, WI

Home | Current Version | Previous Version | Graphics & Text | Print | Product List | Glossary Off
Versions: 1 2 3 4 5 6 7 8 9 10 11 12 13 14 15 16 17 18 19 20 21 22 23 24 25 26 27 28 29 30 31 32 33 34 35 36 37 38 39 40 41 42 43 44 45 46 47 48 49 50

584
ASUS43 KGRB 231911
RWRGRB

NORTH-CENTRAL AND NORTHEAST WISCONSIN REGIONAL WEATHER ROUNDUP
NATIONAL WEATHER SERVICE GREEN BAY WI
200 PM CDT SAT JUL 23 2016

WIZ005-009-010>012-018-019-232000-
NORTH CENTRAL WISCONSIN

CITY           SKY/WX    TMP DP  RH WIND       PRES   REMARKS
IRONWOOD       CLOUDY    84  63  48 SE6       29.91F
MANITOWISH WTR CLOUDY    82  65  56 S10       30.00R
ARBOR VITAE    CLOUDY    82  64  52 S7        30.00S
EAGLE RIVER    CLOUDY    83  57  41 S8        30.00S
LAND O LAKES   CLOUDY    85  59  42 SE6       30.01F
RHINELANDER    CLOUDY    83  63  50 S8        30.02S
PHILLIPS       CLOUDY    79  70  73 S7        29.99R
ANTIGO         CLOUDY    79  66  64 CALM      30.02S
TOMAHAWK       CLOUDY    81  67  63 CALM      30.01S HAZE
MERRILL        CLOUDY    82  69  62 S3        30.00S
$$

WIZ013-073-232000-
NORTHEAST WISCONSIN

CITY           SKY/WX    TMP DP  RH WIND       PRES   REMARKS
IRON MOUNTAIN  CLOUDY    88  56  33 S9        29.98F
MARINETTE      CLOUDY    81  64  56 SE7       30.00S
OCONTO         CLOUDY    84  66  55 SE5       29.98F
$$

WIZ017-030-035>037-045-232000-
CENTRAL WISCONSIN

CITY           SKY/WX    TMP DP  RH WIND       PRES   REMARKS
MEDFORD        CLOUDY    77  72  86 S5        29.99S
WAUSAU         CLOUDY    81  68  64 SE8       29.97F
MOSINEE        SUNNY     79  72  78 SE6       30.00F
MARSHFIELD     CLOUDY    80  71  74 S13       29.98F
WISC RAPIDS    PTSUNNY   82  71  69 SW12      29.99F
STEVENS POINT  CLOUDY    79  68  70 SE6       29.99F
WAUPACA        CLOUDY    85  71  62 S3        29.99F HX  90
SHAWANO        CLOUDY    85  64  48 S5        29.99F
CLINTONVILLE   CLOUDY    84  68  58 SE3       29.99F
WAUTOMA        CLOUDY    82  75  79 CALM      29.98F
$$

WIZ038-039-048-051-232000-
FOX VALLEY

CITY           SKY/WX    TMP DP  RH WIND       PRES   REMARKS
NWS GREEN BAY  CLOUDY    85  72  65 SE7       29.98F HX  91
APPLETON       CLOUDY    84  64  51 VRB5      29.99S
OSHKOSH        CLOUDY    85  72  65 W3        29.99S HX  91
FOND DU LAC    CLOUDY    86  75  69 SW7       29.99S HX  95
$$

WIZ022-050-052-232000-
EAST CENTRAL WISCONSIN

CITY           SKY/WX    TMP DP  RH WIND       PRES   REMARKS
EPHRAIM        FAIR      81  62  52 E3        29.99S
WASHINGTON ISL NOT AVBL
STURGEON BAY   CLOUDY    82  64  54 SE5       30.01S
MANITOWOC      CLOUDY    83  60  45 MISG      30.01R
SHEBOYGAN      CLOUDY    83  69  62 CALM      30.00S
$$

LMZ563-521-522-541>543-232000-
LAKESHORE

STATION/POSITION TIME  TEMP    WIND        PRES    VSBY  WAVE
                       AIR SEA DIR/SP/G                  HT/PER
                 (UTC) (F)     (DEG/KT/KT) (MB)    (MI)  (FT/S)
SHEBOYGAN LKSHOR 1900   70      10/  3/  3 1015.9R
KEWAUNEE LKSHORE 1800   74      40/  3/  6 1015.6S
NORTHPORT PIER   1800   74     130/  5/  6 1015.9S
N MID LAKE BUOY  1850   72 72   70/  4/  4 1014.8F         1
S GREEN BAY BUOY 1800   75 75   30/  4/  6   N/A
CHAMBERS ISLAND  1800   78     340/  4/  6 1015.6F
MENOMINEE LKSHOR 1800   74      40/  6/  8 1014.8F
$$




USA.gov is the U.S. government's official web portal to all federal, state and local government web resources and services.